Showing default

DODECAPOLE 2, 1510

Orbit data source: Space-Track

DODECAPOLE 2, 1510 is a payload satellite owned by NRL (US) in LEO that was launched on Fri, 13 Aug 1965 UTC via a THOR ABLESTAR launch vehicle from the Air Force Western Test Range (AFWTR). Payload-class satellites include a variety of spacecraft equipped with specific instruments for various scientific and technological missions. These include communications satellites like Starlink; space stations such as the ISS; scientific satellites like the Hubble; Earth observation satellites from companies like Planet Labs, Umbra, and HawkEye 360; GPS; miniature CubeSats for education and research; and military/defense satellites.

Loading next visibility...
Identifier
1510, 1965-065C
Orbit
LEO
Country
Flag of USUS
Related business
Manufacturer
NRL
Mission
Spacecraft
Bus & Motor
NRL 9", Unknown motor
Mass
4 kg wet, 4 kg dry
Launch date (UTC)
1965-08-13 (60 years ago)
Launch vehicle
THOR ABLESTAR
Launch site
Air Force Western Test Range (AFWTR)
Object type
Payload
Rocket body
Debris
Shape & HBR
Unknown
Radar Cross Section
Large (>1 m²)

Expand to show TLE details & history
Last TLE update: 5 hours ago

TLE from 5 hours ago
0 DODECAPOLE 2
1  1510U 65065C   25308.50071337  .00005017  00000-0  28535-2 0  9991
2  1510  90.0627  23.4207 0039912 180.7382 179.3751 14.09328048  1490
Epoch: 2025-11-04T12:01Z
TLE epoch observation values (Epoch: 2025-11-04T12:01:01.635Z)
Latitude
0.00007°
Longitude
159.17705°
Altitude
893.612 km
Speed
7.39 km/s
True Right ascension
01h 33m 40s
True Declination
0° 00' 00"
Sunlit
Object was in full shadow at epoch
Visualization orbit readout
Latitude
Unknown
Longitude
Unknown
Altitude
Unknown
Speed
Unknown
Apparent Right ascension
Unknown
Apparent Declination
Unknown
Sunlit
N/A
Visualization observer readout
Local Sidereal Time
13:06:35
Azimuth
Unknown
Elevation
Unknown
Doppler factor
Unknown
Orbital elements
Apogee altitude
887.519 km
Perigee altitude
829.752 km
Semi-major axis
7,236.773 km
Eccentricity
0.00399
Inclination
90.0627°
RAAN
23.4207°
Arg. of periapsis
180.7382°
True anomaly
179.38006°
Mean anomaly
179.3751°
Eccentric anomaly
179.37758°
Mean motion
3.52554 °/min
Orbital period
102.11 mins
BSTAR
0.0028535
Loading maneuver chart data...
Computing Atmospheric mass density...
Loading historical data...
Loading historical data...
Loading historical data...
Loading historical data...
Loading historical data...
Loading historical data...
Loading historical data...

Documentation

Showing up to 5 results
|